Tracking 31011 objects as of 13-Jul-2025
HD Live streaming from Space Station
objects crossing your sky now

CZ-4 DEB

Track CZ-4 DEB now!
10-day predictions


NORAD ID: 37612
Int'l Code: 1990-081CY
Perigee: 701.6 km
Apogee: 747.0 km
Inclination: 98.3 °
Period: 99.1 minutes
Semi major axis: 7095 km
RCS: 0.0126 m2 (small)
Launch date: September 3, 1990
Source: People's Republic of China (PRC)
Launch site: Taiyaun Space Center, China (TSC)

Note: This is SATELLITE DEBRIS
Your satellite tracking list
Your tracking list is empty




NASA's NSSDC Master Catalog

Two Line Element Set (TLE):
1 37612U 90081CY  25190.88062245  .00001937  00000-0  48130-3 0  9998
2 37612  98.3022 230.1536 0032025 129.9758  50.0078 14.52601756634176
Source of the keplerian elements: AFSPC